Location: ??????
(56.0120°N, 39.1740°E)
Time: 17:58:11
(UTC+00:00)

NOSS 3-4 (A) - Pass Details

Date: 14 April 2026
Orbit: 769 x 1442 km, 63.4° (Epoch: 10 January)

Event Time Altitude Azimuth Distance (km) Brightness Sun altitude
Rises 19:55:02 0° 240° (WSW) 3,272 6.2 -21.8°
Reaches altitude 10° 19:57:20 10° 243° (WSW) 2,382 5.5 -22.0°
Maximum altitude 20:02:46 73° 328° (NNW) 913 3.4 -22.2°
Drops below altitude 10° 20:09:01 10° 53° (NE) 2,724 6.0 -22.5°
Sets 20:11:50 0° 56° (NE) 3,778 6.8 -22.7°
